Wiley, CO

8:11 PM MST on February 05, 2016 (GMT -0700)
Lamar Municipal

Weather History for KLAA - November, 2011

Change the Weather History Date:

Saturday, November 5, 2011

  Actual Average Record
Temperature  
Mean Temperature 56 °F 45 °F  
Max Temperature 73 °F 62 °F 83 °F (1945)
Min Temperature 38 °F 27 °F 9 °F (1991)
Degree Days  
Heating Degree Days 9 20  
Month to date heating degree days 102 98  
Since 1 July heating degree days 508 565  
Cooling Degree Days 0 0  
Month to date cooling degree days 0 0  
Year to date cooling degree days 1533 1121  
Growing Degree Days 4 (Base 50)    
Moisture  
Dew Point 27 °F    
Average Humidity 44    
Maximum Humidity 70    
Minimum Humidity 17    
Precipitation  
Precipitation 0.00 in 0.02 in 0.57 in (1953)
Month to date precipitation 0.20 0.11  
Year to date precipitation 14.53  
Snow  
Snow 0.00 in - - ()
Month to date snowfall 0.0  
Snow Depth 0.00 in    
Sea Level Pressure  
Sea Level Pressure 29.42 in    
Wind  
Wind Speed 20 mph (South)    
Max Wind Speed 54 mph    
Max Gust Speed 68 mph    
Visibility 9 miles    
Events      
T = Trace of Precipitation, MM = Missing Value Source: NWS Daily Summary

Daily Weather History Graph

Daily Weather History Graph

Search for Another Location

Airport or City:

Trip Planner

Search our weather history database for the weather conditions in past years. The results will help you decide how hot, cold, wet, or windy it might be!

Date:

Astronomy

Nov. 05, 2011 Rise Set
Actual Time 7:20 AM MDT 5:47 PM MDT
Civil Twilight 6:53 AM MDT 6:15 PM MDT
Nautical Twilight 6:21 AM MDT 6:46 PM MDT
Astronomical Twilight 5:50 AM MDT 7:17 PM MDT
Moon 3:02 PM MDT (11/5) 2:36 AM MDT (11/5)
Length of Visible Light 11h 22m
Length of Day
10h 27m
Waxing Gibbous, 78% of the Moon is Illuminated
Nov 5
Waxing Gibbous
Nov 10
Full
Nov 18
Last Quarter
Nov 24
New
Dec 2
First Quarter

Hourly Weather History & Observations

Time (MDT) Temp. Windchill Dew Point Humidity Pressure Visibility Wind Dir Wind Speed Gust Speed Precip Events Conditions
12:53 AM 51.1 °F - 30.0 °F 44% 29.62 in 10.0 mi East 5.8 mph - N/A   Clear
1:53 AM 51.1 °F - 30.0 °F 44% 29.60 in 10.0 mi South 13.8 mph - N/A   Clear
2:53 AM 48.0 °F - 30.0 °F 50% 29.59 in 10.0 mi South 5.8 mph - N/A   Clear
3:53 AM 48.0 °F - 30.0 °F 50% 29.55 in 10.0 mi South 9.2 mph - N/A   Clear
4:53 AM 46.9 °F - 30.0 °F 52% 29.54 in 10.0 mi ESE 6.9 mph - N/A   Clear
5:53 AM 45.0 °F 38.5 °F 28.9 °F 53% 29.53 in 10.0 mi SE 13.8 mph - N/A   Clear
7:53 AM 37.9 °F 28.9 °F 28.0 °F 68% 29.50 in 10.0 mi ESE 16.1 mph - N/A   Clear
10:46 AM 66.2 °F - 28.4 °F 24% 29.44 in 10.0 mi SSE 21.9 mph 28.8 mph N/A   Clear
10:53 AM 66.9 °F - 28.9 °F 24% 29.33 in 10.0 mi South 21.9 mph 28.8 mph N/A   Clear
11:53 AM 72.0 °F - 28.0 °F 20% 29.28 in 8.0 mi SSW 38.0 mph 59.8 mph N/A   Clear
12:36 PM 71.6 °F - 28.4 °F 20% 29.36 in 5.0 mi SSW 54.1 mph 67.9 mph N/A   Haze
1:09 PM 69.8 °F - 28.4 °F 21% 29.35 in 8.0 mi SSW 47.2 mph 61.0 mph N/A   Scattered Clouds
1:40 PM 69.8 °F - 28.4 °F 21% 29.33 in 6.0 mi SSW 44.9 mph 57.5 mph N/A   Haze
1:53 PM 68.0 °F - 30.0 °F 24% 29.24 in 10.0 mi SSW 34.5 mph 55.2 mph N/A   Mostly Cloudy
2:53 PM 66.9 °F - 28.9 °F 24% 29.24 in 10.0 mi SW 32.2 mph 42.6 mph N/A   Scattered Clouds
3:53 PM 62.1 °F - 18.0 °F 18% 29.24 in 10.0 mi SSW 33.4 mph 50.6 mph N/A   Partly Cloudy
4:53 PM 57.9 °F - 12.9 °F 17% 29.27 in 10.0 mi WSW 29.9 mph 40.3 mph N/A   Scattered Clouds
5:53 PM 57.0 °F - 19.0 °F 23% 29.30 in 10.0 mi SW 28.8 mph 40.3 mph N/A   Scattered Clouds
6:53 PM 54.0 °F - 21.9 °F 29% 29.35 in 10.0 mi SW 23.0 mph - N/A   Clear
7:53 PM 54.0 °F - 21.0 °F 28% 29.41 in 10.0 mi WSW 25.3 mph 33.4 mph N/A   Clear
8:53 PM 54.0 °F - 19.9 °F 26% 29.45 in 10.0 mi WSW 23.0 mph 33.4 mph N/A   Clear
10:53 PM 45.0 °F 43.5 °F 35.1 °F 68% 29.55 in 10.0 mi North 3.5 mph - N/A   Mostly Cloudy
11:53 PM 42.1 °F 39.2 °F 34.0 °F 73% 29.60 in 10.0 mi NE 4.6 mph - N/A   Clear